Year,Month,Day,Hour,Minute,Value (Times are PST for temperature in C)
2015,08,23,00,00,18.30
2015,08,23,00,01,18.30
2015,08,23,00,02,18.30
2015,08,23,00,03,18.30
2015,08,23,00,04,18.30
2015,08,23,00,05,18.40
2015,08,23,00,06,18.40
2015,08,23,00,07,18.40
2015,08,23,00,08,18.40
2015,08,23,00,09,18.40
2015,08,23,00,10,18.40
2015,08,23,00,11,18.40
2015,08,23,00,12,18.40
2015,08,23,00,13,18.30
2015,08,23,00,14,18.30
2015,08,23,00,15,18.30
2015,08,23,00,16,18.30
2015,08,23,00,17,18.20
2015,08,23,00,18,18.20
2015,08,23,00,19,18.20
2015,08,23,00,20,18.20
2015,08,23,00,21,18.20
2015,08,23,00,22,18.20
2015,08,23,00,23,18.20
2015,08,23,00,24,18.20
2015,08,23,00,25,18.20
2015,08,23,00,26,18.20
2015,08,23,00,27,18.20
2015,08,23,00,28,18.20
2015,08,23,00,29,18.20
2015,08,23,00,30,18.20
2015,08,23,00,31,18.10
2015,08,23,00,32,18.10
2015,08,23,00,33,18.10
2015,08,23,00,34,18.00
2015,08,23,00,35,18.00
2015,08,23,00,36,17.90
2015,08,23,00,37,17.90
2015,08,23,00,38,17.90
2015,08,23,00,39,17.80
2015,08,23,00,40,17.80
2015,08,23,00,41,17.80
2015,08,23,00,42,17.80
2015,08,23,00,43,17.80
2015,08,23,00,44,17.80
2015,08,23,00,45,17.80
2015,08,23,00,46,17.80
2015,08,23,00,47,17.70
2015,08,23,00,48,17.70
2015,08,23,00,49,17.70
2015,08,23,00,50,17.70
2015,08,23,00,51,17.60
2015,08,23,00,52,17.60
2015,08,23,00,53,17.60
2015,08,23,00,54,17.50
2015,08,23,00,55,17.40
2015,08,23,00,56,17.40
2015,08,23,00,57,17.30
2015,08,23,00,58,17.30
2015,08,23,00,59,17.30
2015,08,23,01,00,17.20
2015,08,23,01,01,17.20
2015,08,23,01,02,17.20
2015,08,23,01,03,17.20
2015,08,23,01,04,17.20
2015,08,23,01,05,17.20
2015,08,23,01,06,17.20
2015,08,23,01,07,17.20
2015,08,23,01,08,17.20
2015,08,23,01,09,17.20
2015,08,23,01,10,17.30
2015,08,23,01,11,17.30
2015,08,23,01,12,17.30
2015,08,23,01,13,17.40
2015,08,23,01,14,17.40
2015,08,23,01,15,17.40
2015,08,23,01,16,17.50
2015,08,23,01,17,17.50
2015,08,23,01,18,17.60
2015,08,23,01,19,17.60
2015,08,23,01,20,17.60
2015,08,23,01,21,17.60
2015,08,23,01,22,17.50
2015,08,23,01,23,17.50
2015,08,23,01,24,17.50
2015,08,23,01,25,17.50
2015,08,23,01,26,17.50
2015,08,23,01,27,17.40
2015,08,23,01,28,17.40
2015,08,23,01,29,17.40
2015,08,23,01,30,17.40
2015,08,23,01,31,17.40
2015,08,23,01,32,17.40
2015,08,23,01,33,17.40
2015,08,23,01,34,17.40
2015,08,23,01,35,17.40
2015,08,23,01,36,17.40
2015,08,23,01,37,17.40
2015,08,23,01,38,17.40
2015,08,23,01,39,17.40
2015,08,23,01,40,17.40
2015,08,23,01,41,17.40
2015,08,23,01,42,17.40
2015,08,23,01,43,17.40
2015,08,23,01,44,17.40
2015,08,23,01,45,17.40
2015,08,23,01,46,17.40
2015,08,23,01,47,17.40
2015,08,23,01,48,17.40
2015,08,23,01,49,17.40
2015,08,23,01,50,17.40
2015,08,23,01,51,17.40
2015,08,23,01,52,17.40
2015,08,23,01,53,17.40
2015,08,23,01,54,17.40
2015,08,23,01,55,17.30
2015,08,23,01,56,17.30
2015,08,23,01,57,17.30
2015,08,23,01,58,17.30
2015,08,23,01,59,17.30
2015,08,23,02,00,17.30
2015,08,23,02,01,17.30
2015,08,23,02,02,17.30
2015,08,23,02,03,17.30
2015,08,23,02,04,17.30
2015,08,23,02,05,17.30
2015,08,23,02,06,17.30
2015,08,23,02,07,17.30
2015,08,23,02,08,17.30
2015,08,23,02,09,17.30
2015,08,23,02,10,17.30
2015,08,23,02,11,17.30
2015,08,23,02,12,17.20
2015,08,23,02,13,17.20
2015,08,23,02,14,17.20
2015,08,23,02,15,17.20
2015,08,23,02,16,17.20
2015,08,23,02,17,17.20
2015,08,23,02,18,17.20
2015,08,23,02,19,17.20
2015,08,23,02,20,17.20
2015,08,23,02,21,17.20
2015,08,23,02,22,17.20
2015,08,23,02,23,17.20
2015,08,23,02,24,17.20
2015,08,23,02,25,17.20
2015,08,23,02,26,17.20
2015,08,23,02,27,17.20
2015,08,23,02,28,17.20
2015,08,23,02,29,17.20
2015,08,23,02,30,17.20
2015,08,23,02,31,17.20
2015,08,23,02,32,17.20
2015,08,23,02,33,17.20
2015,08,23,02,34,17.20
2015,08,23,02,35,17.20
2015,08,23,02,36,17.20
2015,08,23,02,37,17.20
2015,08,23,02,38,17.10
2015,08,23,02,39,17.10
2015,08,23,02,40,17.10
2015,08,23,02,41,17.10
2015,08,23,02,42,17.10
2015,08,23,02,43,17.10
2015,08,23,02,44,17.00
2015,08,23,02,45,17.00
2015,08,23,02,46,17.00
2015,08,23,02,47,17.00
2015,08,23,02,48,17.00
2015,08,23,02,49,17.00
2015,08,23,02,50,16.90
2015,08,23,02,51,16.90
2015,08,23,02,52,16.90
2015,08,23,02,53,16.90
2015,08,23,02,54,16.90
2015,08,23,02,55,17.00
2015,08,23,02,56,17.00
2015,08,23,02,57,17.00
2015,08,23,02,58,17.00
2015,08,23,02,59,16.90
2015,08,23,03,00,16.90
2015,08,23,03,01,16.90
2015,08,23,03,02,16.90
2015,08,23,03,03,16.90
2015,08,23,03,04,16.90
2015,08,23,03,05,16.90
2015,08,23,03,06,16.90
2015,08,23,03,07,16.90
2015,08,23,03,08,16.80
2015,08,23,03,09,16.80
2015,08,23,03,10,16.80
2015,08,23,03,11,16.70
2015,08,23,03,12,16.70
2015,08,23,03,13,16.70
2015,08,23,03,14,16.70
2015,08,23,03,15,16.70
2015,08,23,03,16,16.70
2015,08,23,03,17,16.70
2015,08,23,03,18,16.70
2015,08,23,03,19,16.60
2015,08,23,03,20,16.70
2015,08,23,03,21,16.70
2015,08,23,03,22,16.70
2015,08,23,03,23,16.70
2015,08,23,03,24,16.60
2015,08,23,03,25,16.70
2015,08,23,03,26,16.60
2015,08,23,03,27,16.60
2015,08,23,03,28,16.60
2015,08,23,03,29,16.60
2015,08,23,03,30,16.60
2015,08,23,03,31,16.60
2015,08,23,03,32,16.50
2015,08,23,03,33,16.50
2015,08,23,03,34,16.50
2015,08,23,03,35,16.50
2015,08,23,03,36,16.40
2015,08,23,03,37,16.40
2015,08,23,03,38,16.40
2015,08,23,03,39,16.40
2015,08,23,03,40,16.40
2015,08,23,03,41,16.40
2015,08,23,03,42,16.40
2015,08,23,03,43,16.40
2015,08,23,03,44,16.30
2015,08,23,03,45,16.30
2015,08,23,03,46,16.30
2015,08,23,03,47,16.30
2015,08,23,03,48,16.30
2015,08,23,03,49,16.30
2015,08,23,03,50,16.30
2015,08,23,03,51,16.30
2015,08,23,03,52,16.30
2015,08,23,03,53,16.30
2015,08,23,03,54,16.30
2015,08,23,03,55,16.30
2015,08,23,03,56,16.30
2015,08,23,03,57,16.30
2015,08,23,03,58,16.30
2015,08,23,03,59,16.30
2015,08,23,04,00,16.30
2015,08,23,04,01,16.20
2015,08,23,04,02,16.20
2015,08,23,04,03,16.20
2015,08,23,04,04,16.20
2015,08,23,04,05,16.20
2015,08,23,04,06,16.20
2015,08,23,04,07,16.20
2015,08,23,04,08,16.10
2015,08,23,04,09,16.10
2015,08,23,04,10,16.10
2015,08,23,04,11,16.00
2015,08,23,04,12,16.00
2015,08,23,04,13,16.00
2015,08,23,04,14,16.00
2015,08,23,04,15,16.00
2015,08,23,04,16,16.00
2015,08,23,04,17,15.90
2015,08,23,04,18,15.90
2015,08,23,04,19,15.90
2015,08,23,04,20,15.90
2015,08,23,04,21,15.90
2015,08,23,04,22,15.90
2015,08,23,04,23,15.90
2015,08,23,04,24,15.80
2015,08,23,04,25,15.80
2015,08,23,04,26,15.80
2015,08,23,04,27,15.80
2015,08,23,04,28,15.80
2015,08,23,04,29,15.70
2015,08,23,04,30,15.70
2015,08,23,04,31,15.70
2015,08,23,04,32,15.70
2015,08,23,04,33,15.60
2015,08,23,04,34,15.60
2015,08,23,04,35,15.60
2015,08,23,04,36,15.60
2015,08,23,04,37,15.60
2015,08,23,04,38,15.50
2015,08,23,04,39,15.50
2015,08,23,04,40,15.50
2015,08,23,04,41,15.50
2015,08,23,04,42,15.40
2015,08,23,04,43,15.40
2015,08,23,04,44,15.40
2015,08,23,04,45,15.40
2015,08,23,04,46,15.40
2015,08,23,04,47,15.40
2015,08,23,04,48,15.40
2015,08,23,04,49,15.30
2015,08,23,04,50,15.30
2015,08,23,04,51,15.30
2015,08,23,04,52,15.30
2015,08,23,04,53,15.30
2015,08,23,04,54,15.30
2015,08,23,04,55,15.30
2015,08,23,04,56,15.30
2015,08,23,04,57,15.30
2015,08,23,04,58,15.30
2015,08,23,04,59,15.30
2015,08,23,05,00,15.30
2015,08,23,05,01,15.30
2015,08,23,05,02,15.30
2015,08,23,05,03,15.30
2015,08,23,05,04,15.30
2015,08,23,05,05,15.30
2015,08,23,05,06,15.30
2015,08,23,05,07,15.40
2015,08,23,05,08,15.40
2015,08,23,05,09,15.40
2015,08,23,05,10,15.40
2015,08,23,05,11,15.40
2015,08,23,05,12,15.40
2015,08,23,05,13,15.40
2015,08,23,05,14,15.40
2015,08,23,05,15,15.40
2015,08,23,05,16,15.40
2015,08,23,05,17,15.40
2015,08,23,05,18,15.40
2015,08,23,05,19,15.40
2015,08,23,05,20,15.40
2015,08,23,05,21,15.40
2015,08,23,05,22,15.40
2015,08,23,05,23,15.40
2015,08,23,05,24,15.40
2015,08,23,05,25,15.30
2015,08,23,05,26,15.30
2015,08,23,05,27,15.30
2015,08,23,05,28,15.30
2015,08,23,05,29,15.30
2015,08,23,05,30,15.30
2015,08,23,05,31,15.30
2015,08,23,05,32,15.30
2015,08,23,05,33,15.30
2015,08,23,05,34,15.20
2015,08,23,05,35,15.20
2015,08,23,05,36,15.20
2015,08,23,05,37,15.20
2015,08,23,05,38,15.20
2015,08,23,05,39,15.20
2015,08,23,05,40,15.20
2015,08,23,05,41,15.20
2015,08,23,05,42,15.10
2015,08,23,05,43,15.10
2015,08,23,05,44,15.10
2015,08,23,05,45,15.10
2015,08,23,05,46,15.10
2015,08,23,05,47,15.10
2015,08,23,05,48,15.10
2015,08,23,05,49,15.00
2015,08,23,05,50,15.00
2015,08,23,05,51,15.00
2015,08,23,05,52,14.90
2015,08,23,05,53,14.90
2015,08,23,05,54,14.90
2015,08,23,05,55,14.90
2015,08,23,05,56,14.90
2015,08,23,05,57,14.90
2015,08,23,05,58,14.90
2015,08,23,05,59,14.90
2015,08,23,06,00,14.80
2015,08,23,06,01,14.80
2015,08,23,06,02,14.80
2015,08,23,06,03,14.80
2015,08,23,06,04,14.70
2015,08,23,06,05,14.70
2015,08,23,06,06,14.70
2015,08,23,06,07,14.70
2015,08,23,06,08,14.70
2015,08,23,06,09,14.70
2015,08,23,06,10,14.60
2015,08,23,06,11,14.60
2015,08,23,06,12,14.60
2015,08,23,06,13,14.60
2015,08,23,06,14,14.60
2015,08,23,06,15,14.60
2015,08,23,06,16,14.60
2015,08,23,06,17,14.50
2015,08,23,06,18,14.50
2015,08,23,06,19,14.50
2015,08,23,06,20,14.50
2015,08,23,06,21,14.50
2015,08,23,06,22,14.50
2015,08,23,06,23,14.60
2015,08,23,06,24,14.60
2015,08,23,06,25,14.60
2015,08,23,06,26,14.60
2015,08,23,06,27,14.60
2015,08,23,06,28,14.60
2015,08,23,06,29,14.50
2015,08,23,06,30,14.50
2015,08,23,06,31,14.50
2015,08,23,06,32,14.50
2015,08,23,06,33,14.40
2015,08,23,06,34,14.40
2015,08,23,06,35,14.40
2015,08,23,06,36,14.40
2015,08,23,06,37,14.40
2015,08,23,06,38,14.40
2015,08,23,06,39,14.30
2015,08,23,06,40,14.30
2015,08,23,06,41,14.30
2015,08,23,06,42,14.30
2015,08,23,06,43,14.30
2015,08,23,06,44,14.30
2015,08,23,06,45,14.30
2015,08,23,06,46,14.30
2015,08,23,06,47,14.30
2015,08,23,06,48,14.30
2015,08,23,06,49,14.30
2015,08,23,06,50,14.40
2015,08,23,06,51,14.40
2015,08,23,06,52,14.40
2015,08,23,06,53,14.40
2015,08,23,06,54,14.40
2015,08,23,06,55,14.40
2015,08,23,06,56,14.40
2015,08,23,06,57,14.40
2015,08,23,06,58,14.40
2015,08,23,06,59,14.40
2015,08,23,07,00,14.40
2015,08,23,07,01,14.40
2015,08,23,07,02,14.40
2015,08,23,07,03,14.40
2015,08,23,07,04,14.40
2015,08,23,07,05,14.40
2015,08,23,07,06,14.40
2015,08,23,07,07,14.40
2015,08,23,07,08,14.40
2015,08,23,07,09,14.40
2015,08,23,07,10,14.40
2015,08,23,07,11,14.40
2015,08,23,07,12,14.50
2015,08,23,07,13,14.50
2015,08,23,07,14,14.50
2015,08,23,07,15,14.50
2015,08,23,07,16,14.50
2015,08,23,07,17,14.60
2015,08,23,07,18,14.60
2015,08,23,07,19,14.60
2015,08,23,07,20,14.60
2015,08,23,07,21,14.70
2015,08,23,07,22,14.70
2015,08,23,07,23,14.70
2015,08,23,07,24,14.80
2015,08,23,07,25,14.80
2015,08,23,07,26,14.80
2015,08,23,07,27,14.90
2015,08,23,07,28,14.90
2015,08,23,07,29,14.90
2015,08,23,07,30,14.90
2015,08,23,07,31,15.00
2015,08,23,07,32,15.00
2015,08,23,07,33,15.00
2015,08,23,07,34,15.10
2015,08,23,07,35,15.10
2015,08,23,07,36,15.10
2015,08,23,07,37,15.10
2015,08,23,07,38,15.10
2015,08,23,07,39,15.10
2015,08,23,07,40,15.10
2015,08,23,07,41,15.20
2015,08,23,07,42,15.20
2015,08,23,07,43,15.20
2015,08,23,07,44,15.20
2015,08,23,07,45,15.20
2015,08,23,07,46,15.20
2015,08,23,07,47,15.30
2015,08,23,07,48,15.30
2015,08,23,07,49,15.30
2015,08,23,07,50,15.30
2015,08,23,07,51,15.40
2015,08,23,07,52,15.40
2015,08,23,07,53,15.40
2015,08,23,07,54,15.50
2015,08,23,07,55,15.50
2015,08,23,07,56,15.50
2015,08,23,07,57,15.60
2015,08,23,07,58,15.60
2015,08,23,07,59,15.60
2015,08,23,08,00,15.60
2015,08,23,08,01,15.70
2015,08,23,08,02,15.70
2015,08,23,08,03,15.70
2015,08,23,08,04,15.70
2015,08,23,08,05,15.80
2015,08,23,08,06,15.80
2015,08,23,08,07,15.80
2015,08,23,08,08,15.80
2015,08,23,08,09,15.80
2015,08,23,08,10,15.80
2015,08,23,08,11,15.90
2015,08,23,08,12,15.90
2015,08,23,08,13,15.90
2015,08,23,08,14,15.90
2015,08,23,08,15,16.00
2015,08,23,08,16,16.00
2015,08,23,08,17,16.00
2015,08,23,08,18,16.00
2015,08,23,08,19,16.10
2015,08,23,08,20,16.10
2015,08,23,08,21,16.10
2015,08,23,08,22,16.10
2015,08,23,08,23,16.10
2015,08,23,08,24,16.10
2015,08,23,08,25,16.10
2015,08,23,08,26,16.20
2015,08,23,08,27,16.20
2015,08,23,08,28,16.20
2015,08,23,08,29,16.20
2015,08,23,08,30,16.20
2015,08,23,08,31,16.30
2015,08,23,08,32,16.30
2015,08,23,08,33,16.30
2015,08,23,08,34,16.30
2015,08,23,08,35,16.40
2015,08,23,08,36,16.40
2015,08,23,08,37,16.40
2015,08,23,08,38,16.40
2015,08,23,08,39,16.50
2015,08,23,08,40,16.50
2015,08,23,08,41,16.50
2015,08,23,08,42,16.60
2015,08,23,08,43,16.60
2015,08,23,08,44,16.70
2015,08,23,08,45,16.70
2015,08,23,08,46,16.70
2015,08,23,08,47,16.70
2015,08,23,08,48,16.80
2015,08,23,08,49,16.80
2015,08,23,08,50,16.80
2015,08,23,08,51,16.80
2015,08,23,08,52,16.80
2015,08,23,08,53,16.90
2015,08,23,08,54,16.90
2015,08,23,08,55,16.90
2015,08,23,08,56,16.90
2015,08,23,08,57,17.00
2015,08,23,08,58,17.00
2015,08,23,08,59,17.10
2015,08,23,09,00,17.10
2015,08,23,09,01,17.10
2015,08,23,09,02,17.10
2015,08,23,09,03,17.10
2015,08,23,09,04,17.10
2015,08,23,09,05,17.10
2015,08,23,09,06,17.10
2015,08,23,09,07,17.10
2015,08,23,09,08,17.10
2015,08,23,09,09,17.20
2015,08,23,09,10,17.20
2015,08,23,09,11,17.20
2015,08,23,09,12,17.20
2015,08,23,09,13,17.30
2015,08,23,09,14,17.30
2015,08,23,09,15,17.40
2015,08,23,09,16,17.40
2015,08,23,09,17,17.40
2015,08,23,09,18,17.40
2015,08,23,09,19,17.40
2015,08,23,09,20,17.40
2015,08,23,09,21,17.40
2015,08,23,09,22,17.40
2015,08,23,09,23,17.40
2015,08,23,09,24,17.40
2015,08,23,09,25,17.40
2015,08,23,09,26,17.40
2015,08,23,09,27,17.50
2015,08,23,09,28,17.50
2015,08,23,09,29,17.50
2015,08,23,09,30,17.60
2015,08,23,09,31,17.60
2015,08,23,09,32,17.60
2015,08,23,09,33,17.50
2015,08,23,09,34,17.50
2015,08,23,09,35,17.50
2015,08,23,09,36,17.60
2015,08,23,09,37,17.60
2015,08,23,09,38,17.60
2015,08,23,09,39,17.70
2015,08,23,09,40,17.70
2015,08,23,09,41,17.70
2015,08,23,09,42,17.70
2015,08,23,09,43,17.80
2015,08,23,09,44,17.80
2015,08,23,09,45,17.90
2015,08,23,09,46,17.90
2015,08,23,09,47,18.00
2015,08,23,09,48,18.00
2015,08,23,09,49,18.00
2015,08,23,09,50,18.10
2015,08,23,09,51,18.10
2015,08,23,09,52,18.10
2015,08,23,09,53,18.10
2015,08,23,09,54,18.20
2015,08,23,09,55,18.20
2015,08,23,09,56,18.20
2015,08,23,09,57,18.20
2015,08,23,09,58,18.20
2015,08,23,09,59,18.20
2015,08,23,10,00,18.20
2015,08,23,10,01,18.10
2015,08,23,10,02,18.10
2015,08,23,10,03,18.20
2015,08,23,10,04,18.20
2015,08,23,10,05,18.30
2015,08,23,10,06,18.30
2015,08,23,10,07,18.30
2015,08,23,10,08,18.30
2015,08,23,10,09,18.30
2015,08,23,10,10,18.30
2015,08,23,10,11,18.30
2015,08,23,10,12,18.30
2015,08,23,10,13,18.30
2015,08,23,10,14,18.30
2015,08,23,10,15,18.30
2015,08,23,10,16,18.40
2015,08,23,10,17,18.40
2015,08,23,10,18,18.50
2015,08,23,10,19,18.50
2015,08,23,10,20,18.60
2015,08,23,10,21,18.60
2015,08,23,10,22,18.60
2015,08,23,10,23,18.60
2015,08,23,10,24,18.60
2015,08,23,10,25,18.60
2015,08,23,10,26,18.70
2015,08,23,10,27,18.70
2015,08,23,10,28,18.70
2015,08,23,10,29,18.70
2015,08,23,10,30,18.70
2015,08,23,10,31,18.70
2015,08,23,10,32,18.80
2015,08,23,10,33,18.80
2015,08,23,10,34,18.90
2015,08,23,10,35,18.90
2015,08,23,10,36,18.90
2015,08,23,10,37,18.90
2015,08,23,10,38,18.90
2015,08,23,10,39,18.90
2015,08,23,10,40,18.90
2015,08,23,10,41,18.90
2015,08,23,10,42,19.00
2015,08,23,10,43,19.10
2015,08,23,10,44,19.10
2015,08,23,10,45,19.10
2015,08,23,10,46,19.10
2015,08,23,10,47,19.10
2015,08,23,10,48,19.20
2015,08,23,10,49,19.20
2015,08,23,10,50,19.30
2015,08,23,10,51,19.30
2015,08,23,10,52,19.30
2015,08,23,10,53,19.30
2015,08,23,10,54,19.30
2015,08,23,10,55,19.40
2015,08,23,10,56,19.40
2015,08,23,10,57,19.40
2015,08,23,10,58,19.50
2015,08,23,10,59,19.60
2015,08,23,11,00,19.60
2015,08,23,11,01,19.70
2015,08,23,11,02,19.80
2015,08,23,11,03,19.80
2015,08,23,11,04,19.80
2015,08,23,11,05,19.80
2015,08,23,11,06,19.70
2015,08,23,11,07,19.70
2015,08,23,11,08,19.70
2015,08,23,11,09,19.80
2015,08,23,11,10,19.80
2015,08,23,11,11,19.80
2015,08,23,11,12,19.90
2015,08,23,11,13,19.90
2015,08,23,11,14,19.90
2015,08,23,11,15,19.90
2015,08,23,11,16,20.00
2015,08,23,11,17,20.10
2015,08,23,11,18,20.10
2015,08,23,11,19,20.10
2015,08,23,11,20,20.00
2015,08,23,11,21,20.00
2015,08,23,11,22,19.90
2015,08,23,11,23,20.00
2015,08,23,11,24,20.00
2015,08,23,11,25,19.90
2015,08,23,11,26,19.90
2015,08,23,11,27,20.00
2015,08,23,11,28,20.00
2015,08,23,11,29,20.10
2015,08,23,11,30,20.20
2015,08,23,11,31,20.20
2015,08,23,11,32,20.20
2015,08,23,11,33,20.20
2015,08,23,11,34,20.20
2015,08,23,11,35,20.30
2015,08,23,11,36,20.30
2015,08,23,11,37,20.40
2015,08,23,11,38,20.50
2015,08,23,11,39,20.50
2015,08,23,11,40,20.50
2015,08,23,11,41,20.50
2015,08,23,11,42,20.40
2015,08,23,11,43,20.40
2015,08,23,11,44,20.40
2015,08,23,11,45,20.40
2015,08,23,11,46,20.40
2015,08,23,11,47,20.50
2015,08,23,11,48,20.50
2015,08,23,11,49,20.60
2015,08,23,11,50,20.60
2015,08,23,11,51,20.60
2015,08,23,11,52,20.70
2015,08,23,11,53,20.70
2015,08,23,11,54,20.70
2015,08,23,11,55,20.70
2015,08,23,11,56,20.70
2015,08,23,11,57,20.70
2015,08,23,11,58,20.80
2015,08,23,11,59,20.80
2015,08,23,12,00,20.90
2015,08,23,12,01,21.00
2015,08,23,12,02,21.10
2015,08,23,12,03,21.00
2015,08,23,12,04,20.90
2015,08,23,12,05,20.90
2015,08,23,12,06,20.90
2015,08,23,12,07,21.00
2015,08,23,12,08,21.10
2015,08,23,12,09,21.10
2015,08,23,12,10,21.10
2015,08,23,12,11,21.10
2015,08,23,12,12,21.10
2015,08,23,12,13,21.10
2015,08,23,12,14,21.20
2015,08,23,12,15,21.20
2015,08,23,12,16,21.30
2015,08,23,12,17,21.30
2015,08,23,12,18,21.40
2015,08,23,12,19,21.40
2015,08,23,12,20,21.40
2015,08,23,12,21,21.50
2015,08,23,12,22,21.40
2015,08,23,12,23,21.40
2015,08,23,12,24,21.40
2015,08,23,12,25,21.40
2015,08,23,12,26,21.50
2015,08,23,12,27,21.60
2015,08,23,12,28,21.60
2015,08,23,12,29,21.70
2015,08,23,12,30,21.80
2015,08,23,12,31,21.80
2015,08,23,12,32,21.80
2015,08,23,12,33,21.80
2015,08,23,12,34,22.00
2015,08,23,12,35,22.00
2015,08,23,12,36,22.00
2015,08,23,12,37,22.00
2015,08,23,12,38,21.90
2015,08,23,12,39,21.90
2015,08,23,12,40,21.80
2015,08,23,12,41,21.70
2015,08,23,12,42,21.70
2015,08,23,12,43,21.70
2015,08,23,12,44,21.70
2015,08,23,12,45,21.80
2015,08,23,12,46,21.90
2015,08,23,12,47,22.00
2015,08,23,12,48,22.10
2015,08,23,12,49,22.10
2015,08,23,12,50,22.10
2015,08,23,12,51,22.10
2015,08,23,12,52,22.10
2015,08,23,12,53,22.00
2015,08,23,12,54,22.00
2015,08,23,12,55,21.90
2015,08,23,12,56,21.90
2015,08,23,12,57,22.00
2015,08,23,12,58,22.00
2015,08,23,12,59,22.10
2015,08,23,13,00,22.20
2015,08,23,13,01,22.20
2015,08,23,13,02,22.20
2015,08,23,13,03,22.30
2015,08,23,13,04,22.30
2015,08,23,13,05,22.30
2015,08,23,13,06,22.30
2015,08,23,13,07,22.30
2015,08,23,13,08,22.20
2015,08,23,13,09,22.20
2015,08,23,13,10,22.20
2015,08,23,13,11,22.10
2015,08,23,13,12,22.10
2015,08,23,13,13,22.10
2015,08,23,13,14,22.20
2015,08,23,13,15,22.30
2015,08,23,13,16,22.30
2015,08,23,13,17,22.30
2015,08,23,13,18,22.30
2015,08,23,13,19,22.30
2015,08,23,13,20,22.30
2015,08,23,13,21,22.30
2015,08,23,13,22,22.30
2015,08,23,13,23,22.40
2015,08,23,13,24,22.40
2015,08,23,13,25,22.40
2015,08,23,13,26,22.40
2015,08,23,13,27,22.50
2015,08,23,13,28,22.60
2015,08,23,13,29,22.60
2015,08,23,13,30,22.60
2015,08,23,13,31,22.60
2015,08,23,13,32,22.60
2015,08,23,13,33,22.60
2015,08,23,13,34,22.60
2015,08,23,13,35,22.60
2015,08,23,13,36,22.60
2015,08,23,13,37,22.60
2015,08,23,13,38,22.70
2015,08,23,13,39,22.80
2015,08,23,13,40,22.90
2015,08,23,13,41,23.00
2015,08,23,13,42,23.10
2015,08,23,13,43,23.10
2015,08,23,13,44,23.10
2015,08,23,13,45,23.00
2015,08,23,13,46,23.00
2015,08,23,13,47,23.00
2015,08,23,13,48,22.90
2015,08,23,13,49,22.90
2015,08,23,13,50,23.00
2015,08,23,13,51,23.00
2015,08,23,13,52,23.10
2015,08,23,13,53,23.00
2015,08,23,13,54,23.00
2015,08,23,13,55,23.00
2015,08,23,13,56,23.00
2015,08,23,13,57,23.00
2015,08,23,13,58,23.00
2015,08,23,13,59,23.00
2015,08,23,14,00,23.00
2015,08,23,14,01,22.90
2015,08,23,14,02,22.90
2015,08,23,14,03,23.00
2015,08,23,14,04,23.00
2015,08,23,14,05,23.10
2015,08,23,14,06,23.20
2015,08,23,14,07,23.20
2015,08,23,14,08,23.20
2015,08,23,14,09,23.20
2015,08,23,14,10,23.20
2015,08,23,14,11,23.20
2015,08,23,14,12,23.20
2015,08,23,14,13,23.20
2015,08,23,14,14,23.20
2015,08,23,14,15,23.20
2015,08,23,14,16,23.20
2015,08,23,14,17,23.20
2015,08,23,14,18,23.20
2015,08,23,14,19,23.30
2015,08,23,14,20,23.30
2015,08,23,14,21,23.30
2015,08,23,14,22,23.40
2015,08,23,14,23,23.40
2015,08,23,14,24,23.40
2015,08,23,14,25,23.30
2015,08,23,14,26,23.20
2015,08,23,14,27,23.20
2015,08,23,14,28,23.20
2015,08,23,14,29,23.20
2015,08,23,14,30,23.30
2015,08,23,14,31,23.30
2015,08,23,14,32,23.30
2015,08,23,14,33,23.30
2015,08,23,14,34,23.30
2015,08,23,14,35,23.30
2015,08,23,14,36,23.40
2015,08,23,14,37,23.50
2015,08,23,14,38,23.60
2015,08,23,14,39,23.60
2015,08,23,14,40,23.60
2015,08,23,14,41,23.60
2015,08,23,14,42,23.60
2015,08,23,14,43,23.60
2015,08,23,14,44,23.60
2015,08,23,14,45,23.60
2015,08,23,14,46,23.60
2015,08,23,14,47,23.60
2015,08,23,14,48,23.60
2015,08,23,14,49,23.60
2015,08,23,14,50,23.60
2015,08,23,14,51,23.60
2015,08,23,14,52,23.60
2015,08,23,14,53,23.60
2015,08,23,14,54,23.60
2015,08,23,14,55,23.70
2015,08,23,14,56,23.70
2015,08,23,14,57,23.70
2015,08,23,14,58,23.70
2015,08,23,14,59,23.60
2015,08,23,15,00,23.50
2015,08,23,15,01,23.40
2015,08,23,15,02,23.40
2015,08,23,15,03,23.40
2015,08,23,15,04,23.40
2015,08,23,15,05,23.40
2015,08,23,15,06,23.40
2015,08,23,15,07,23.40
2015,08,23,15,08,23.30
2015,08,23,15,09,23.30
2015,08,23,15,10,23.30
2015,08,23,15,11,23.40
2015,08,23,15,12,23.40
2015,08,23,15,13,23.40
2015,08,23,15,14,23.30
2015,08,23,15,15,23.30
2015,08,23,15,16,23.40
2015,08,23,15,17,23.40
2015,08,23,15,18,23.50
2015,08,23,15,19,23.50
2015,08,23,15,20,23.60
2015,08,23,15,21,23.70
2015,08,23,15,22,23.70
2015,08,23,15,23,23.80
2015,08,23,15,24,23.90
2015,08,23,15,25,23.90
2015,08,23,15,26,23.90
2015,08,23,15,27,23.90
2015,08,23,15,28,24.00
2015,08,23,15,29,24.10
2015,08,23,15,30,24.10
2015,08,23,15,31,24.10
2015,08,23,15,32,24.10
2015,08,23,15,33,24.10
2015,08,23,15,34,24.20
2015,08,23,15,35,24.20
2015,08,23,15,36,24.20
2015,08,23,15,37,24.10
2015,08,23,15,38,24.10
2015,08,23,15,39,24.10
2015,08,23,15,40,24.10
2015,08,23,15,41,24.10
2015,08,23,15,42,24.10
2015,08,23,15,43,24.20
2015,08,23,15,44,24.20
2015,08,23,15,45,24.30
2015,08,23,15,46,24.20
2015,08,23,15,47,24.30
2015,08,23,15,48,24.30
2015,08,23,15,49,24.30
2015,08,23,15,50,24.30
2015,08,23,15,51,24.30
2015,08,23,15,52,24.20
2015,08,23,15,53,24.10
2015,08,23,15,54,24.00
2015,08,23,15,55,23.80
2015,08,23,15,56,23.80
2015,08,23,15,57,23.70
2015,08,23,15,58,23.80
2015,08,23,15,59,23.80
2015,08,23,16,00,23.80
2015,08,23,16,01,23.90
2015,08,23,16,02,23.90
2015,08,23,16,03,23.90
2015,08,23,16,04,23.90
2015,08,23,16,05,23.90
2015,08,23,16,06,23.90
2015,08,23,16,07,23.90
2015,08,23,16,08,24.00
2015,08,23,16,09,24.00
2015,08,23,16,10,24.10
2015,08,23,16,11,24.10
2015,08,23,16,12,24.20
2015,08,23,16,13,24.10
2015,08,23,16,14,24.20
2015,08,23,16,15,24.20
2015,08,23,16,16,24.20
2015,08,23,16,17,24.20
2015,08,23,16,18,24.20
2015,08,23,16,19,24.20
2015,08,23,16,20,24.20
2015,08,23,16,21,24.20
2015,08,23,16,22,24.20
2015,08,23,16,23,24.20
2015,08,23,16,24,24.20
2015,08,23,16,25,24.20
2015,08,23,16,26,24.20
2015,08,23,16,27,24.30
2015,08,23,16,28,24.30
2015,08,23,16,29,24.30
2015,08,23,16,30,24.20
2015,08,23,16,31,24.20
2015,08,23,16,32,24.20
2015,08,23,16,33,24.20
2015,08,23,16,34,24.20
2015,08,23,16,35,24.20
2015,08,23,16,36,24.10
2015,08,23,16,37,24.10
2015,08,23,16,38,24.00
2015,08,23,16,39,23.90
2015,08,23,16,40,23.80
2015,08,23,16,41,23.80
2015,08,23,16,42,23.80
2015,08,23,16,43,23.80
2015,08,23,16,44,23.80
2015,08,23,16,45,23.90
2015,08,23,16,46,23.90
2015,08,23,16,47,23.90
2015,08,23,16,48,23.80
2015,08,23,16,49,23.80
2015,08,23,16,50,23.80
2015,08,23,16,51,23.80
2015,08,23,16,52,23.80
2015,08,23,16,53,23.80
2015,08,23,16,54,23.80
2015,08,23,16,55,23.70
2015,08,23,16,56,23.70
2015,08,23,16,57,23.60
2015,08,23,16,58,23.50
2015,08,23,16,59,23.40
2015,08,23,17,00,23.40
2015,08,23,17,01,23.40
2015,08,23,17,02,23.40
2015,08,23,17,03,23.40
2015,08,23,17,04,23.40
2015,08,23,17,05,23.40
2015,08,23,17,06,23.40
2015,08,23,17,07,23.40
2015,08,23,17,08,23.40
2015,08,23,17,09,23.30
2015,08,23,17,10,23.30
2015,08,23,17,11,23.20
2015,08,23,17,12,23.10
2015,08,23,17,13,23.10
2015,08,23,17,14,23.10
2015,08,23,17,15,23.10
2015,08,23,17,16,23.00
2015,08,23,17,17,23.10
2015,08,23,17,18,23.10
2015,08,23,17,19,23.20